This demonstration page uses our WeatherBlox Daily Observations layout. Learn more.

Left ArrowRight Arrow

40.92501, -98.34201

Hourly Observations for December 6, 2022

Temp ( °F °C ) Dew Point ( °F °C ) Humidity (%) Winds ( mph kmh ) Pressure ( in mb ) Visibility ( mi km ) Precip ( " mm )
12:53 am 00:53 Cloudy 26 -3.3 17 -8.3 68 68 NNE 3 6 30.02 1017 10 16 0.00 0.00
1:53 am 01:53 Mostly Cloudy 24 -4.4 17 -8.3 74 74 ESE 6 9 30.01 1016 10 16 0.00 0.00
2:53 am 02:53 Partly Cloudy 24 -4.4 17 -8.3 74 74 Calm 30.01 1016 10 16 0.00 0.00
3:53 am 03:53 Cloudy 26 -3.3 18 -7.8 71 71 E 3 6 30.00 1016 10 16 0.00 0.00
4:53 am 04:53 Cloudy 26 -3.3 18 -7.8 71 71 Calm 30.01 1016 10 16 0.00 0.00
5:53 am 05:53 Cloudy 27 -2.8 18 -7.8 68 68 SSW 3 6 30.02 1017 10 16 0.00 0.00
6:53 am 06:53 Cloudy 27 -2.8 18 -7.8 68 68 SSW 3 6 30.04 1017 10 16 0.00 0.00
7:53 am 07:53 Partly Cloudy 25 -3.9 17 -8.3 71 71 Calm 30.05 1018 10 16 0.00 0.00
8:53 am 08:53 Sunny 27 -2.8 19 -7.2 72 72 S 9 15 30.02 1017 10 16 0.00 0.00
9:53 am 09:53 Sunny 30 -1.1 19 -7.2 63 63 S 8 13 30.04 1017 10 16 0.00 0.00
10:53 am 10:53 Sunny 33 0.6 19 -7.2 56 56 SW 12 19 30.05 1018 10 16 0.00 0.00
11:53 am 11:53 Sunny 37 2.8 19 -7.2 48 48 SW 10 17 30.01 1016 10 16 0.00 0.00
12:53 pm 12:53 Sunny 41 5 20 -6.7 42 42 SW 7 11 29.98 1015 10 16 0.00 0.00
1:53 pm 13:53 Sunny 46 7.8 20 -6.7 35 35 SW 9 15 29.97 1015 10 16 0.00 0.00
2:53 pm 14:53 Sunny 48 8.9 21 -6.1 34 34 S 7 11 29.96 1015 10 16 0.00 0.00
3:53 pm 15:53 Sunny 48 8.9 21 -6.1 34 34 SSW 9 15 29.98 1015 10 16 0.00 0.00
4:53 pm 16:53 Sunny 42 5.6 20 -6.7 41 41 S 9 15 30.00 1016 10 16 0.00 0.00
5:53 pm 17:53 Clear 38 3.3 20 -6.7 48 48 S 8 13 30.03 1017 10 16 0.00 0.00
6:53 pm 18:53 Clear 34 1.1 20 -6.7 56 56 SSW 9 15 30.04 1017 10 16 0.00 0.00
7:53 pm 19:53 Clear 34 1.1 20 -6.7 56 56 SSW 7 11 30.06 1018 10 16 0.00 0.00
8:53 pm 20:53 Clear 33 0.6 20 -6.7 58 58 S 8 13 30.08 1019 10 16 0.00 0.00
9:53 pm 21:53 Clear 33 0.6 20 -6.7 58 58 SSW 7 11 30.08 1019 10 16 0.00 0.00
10:53 pm 22:53 Clear 26 -3.3 17 -8.3 68 68 NW 6 9 30.11 1020 10 16 0.00 0.00
11:53 pm 23:53 Clear 29 -1.7 19 -7.2 66 66 WSW 9 15 30.11 1020 10 16 0.00 0.00

Powered by AerisWeather